Simultaneous Nadir Overpasses (SNOs) Predictions

Prediction of SNOs between AQUA and NOAA-19 Satellite Orbit:

Table of predicted SNOs for the next 14.0 days since TLE Epoch: 1/18/2019
Index Date (AQUA) Time (AQUA) Lat,Lon (AQUA) SZA (AQUA ) Date (NOAA-19) Time (NOAA-19) Lat,Lon (NOAA-19) SZA (NOAA-19 ) Distance(km) Time Diff (sec)
1 01/19/2019 19:15:56 80.59,-145.13 102.80 01/19/2019 19:15:52 80.57,-145.27 102.80 2.86 4
2 01/22/2019 00:49:40 -80.58, -48.45 77.70 01/22/2019 00:49:23 -80.57, -48.54 77.68 1.64 17
3 01/22/2019 01:39:08 80.60, 118.91 102.35 01/22/2019 01:40:21 80.58, 118.85 102.31 2.64 73
4 01/24/2019 06:23:25 80.56, 48.28 101.78 01/24/2019 06:22:50 80.57, 48.12 101.82 3.19 35
5 01/24/2019 07:12:52 -80.59,-144.39 78.18 01/24/2019 07:13:52 -80.59,-144.24 78.22 2.75 60
6 01/26/2019 11:57:10 -80.58, 144.67 78.73 01/26/2019 11:56:22 -80.57, 144.86 78.73 3.44 48
7 01/26/2019 12:46:37 80.58, -47.71 101.27 01/26/2019 12:47:19 80.58, -47.80 101.26 1.60 42
8 01/28/2019 17:30:55 80.57,-118.70 100.70 01/28/2019 17:29:48 80.57,-118.55 100.71 2.70 67
9 01/28/2019 18:20:22 -80.59, 48.71 79.27 01/28/2019 18:20:52 -80.57, 48.77 79.31 2.63 30




NCC Satellite Simultaneous Nadir Overpasses (SNOs) Prediction Service
